| time (UTC) | temp F | wind direction | speed MPH | gust MPH | rain 1hr in | rain 24hr in | rain mn in | humidity % | barometer mb |
| 20260507191553 | 60 | 302 | 7.0 | 18.0 | 0.00 | 0.00 | 0.00 | 47 | 1010.9 |
| 20260507190054 | 60 | 262 | 4.0 | 11.0 | 0.00 | 0.00 | 0.00 | 47 | 1010.9 |
| 20260507184555 | 59 | 338 | 4.0 | 10.0 | 0.00 | 0.00 | 0.00 | 50 | 1011.1 |
| 20260507183055 | 60 | 222 | 3.0 | 11.0 | 0.00 | 0.00 | 0.00 | 51 | 1011.0 |
| 20260507181551 | 60 | 170 | 4.0 | 12.0 | 0.00 | 0.00 | 0.00 | 50 | 1011.1 |
| 20260507180059 | 59 | 186 | 4.0 | 8.0 | 0.00 | 0.00 | 0.00 | 54 | 1011.5 |
| 20260507174605 | 60 | 60 | 2.0 | 14.0 | 0.00 | 0.00 | 0.00 | 58 | 1011.5 |
| 20260507173052 | 59 | 284 | 5.0 | 14.0 | 0.00 | 0.00 | 0.00 | 56 | 1011.9 |
| 20260507171611 | 59 | 259 | 2.0 | 12.0 | 0.00 | 0.00 | 0.00 | 54 | 1011.8 |
| 20260507170105 | 59 | 44 | 3.0 | 11.0 | 0.00 | 0.00 | 0.00 | 53 | 1011.6 |
| 20260507164603 | 58 | 350 | 5.0 | 10.0 | 0.00 | 0.00 | 0.00 | 57 | 1011.8 |
| 20260507163101 | 57 | 162 | 1.0 | 8.0 | 0.00 | 0.00 | 0.00 | 59 | 1012.0 |
| 20260507161601 | 58 | 0 | 2.0 | 7.0 | 0.00 | 0.00 | 0.00 | 58 | 1011.9 |
| 20260507160056 | 57 | 86 | 3.0 | 9.0 | 0.00 | 0.00 | 0.00 | 64 | 1012.0 |
| 20260507154557 | 57 | 198 | 4.0 | 10.0 | 0.00 | 0.00 | 0.00 | 62 | 1012.1 |
| 20260507153104 | 56 | 216 | 1.0 | 6.0 | 0.00 | 0.00 | 0.00 | 62 | 1012.0 |
| 20260507151554 | 56 | 0 | 2.0 | 9.0 | 0.00 | 0.00 | 0.00 | 64 | 1011.8 |
| 20260507150052 | 55 | 134 | 2.0 | 10.0 | 0.00 | 0.00 | 0.00 | 66 | 1011.9 |
| 20260507144555 | 56 | 49 | 1.0 | 4.0 | 0.00 | 0.00 | 0.00 | 64 | 1011.8 |
| 20260507143056 | 55 | 118 | 0.0 | 5.0 | 0.00 | 0.00 | 0.00 | 72 | 1011.7 |
| 20260507141552 | 54 | 0 | 1.0 | 4.0 | 0.00 | 0.00 | 0.00 | 71 | 1011.9 |
| 20260507140103 | 54 | 155 | 1.0 | 3.0 | 0.00 | 0.00 | 0.00 | 71 | 1011.9 |
| 20260507134600 | 53 | 55 | 2.0 | 5.0 | 0.00 | 0.00 | 0.00 | 75 | 1012.1 |
| 20260507133113 | 52 | 67 | 0.0 | 4.0 | 0.00 | 0.00 | 0.00 | 77 | 1012.0 |
| 20260507131558 | 52 | 101 | 0.0 | 4.0 | 0.00 | 0.00 | 0.00 | 81 | 1012.1 |
| 20260507130112 | 51 | 98 | 0.0 | 4.0 | 0.00 | 0.00 | 0.00 | 86 | 1012.2 |
| 20260507124631 | 50 | 0 | 0.0 | 0.0 | 0.00 | 0.00 | 0.00 | 94 | 1012.4 |
| 20260507123110 | 50 | 0 | 0.0 | 2.0 | 0.00 | 0.00 | 0.00 | 94 | 1012.4 |
| 20260507121602 | 49 | 0 | 0.0 | 0.0 | 0.00 | 0.00 | 0.00 | 95 | 1012.3 |
| 20260507120058 | 49 | 0 | 0.0 | 0.0 | 0.00 | 0.00 | 0.00 | 95 | 1012.1 |
| 20260507114612 | 49 | 0 | 0.0 | 0.0 | 0.00 | 0.00 | 0.00 | 95 | 1012.0 |
| 20260507113059 | 48 | 0 | 0.0 | 0.0 | 0.00 | 0.00 | 0.00 | 95 | 1012.1 |
| 20260507111602 | 48 | 0 | 0.0 | 0.0 | 0.00 | 0.00 | 0.00 | 95 | 1011.9 |
| 20260507110054 | 48 | 0 | 0.0 | 0.0 | 0.00 | 0.00 | 0.00 | 94 | 1011.8 |
| 20260507104557 | 48 | 0 | 0.0 | 0.0 | 0.00 | 0.06 | 0.00 | 95 | 1011.6 |
| 20260507103052 | 48 | 0 | 0.0 | 0.0 | 0.00 | 0.06 | 0.00 | 95 | 1011.7 |
| 20260507101557 | 48 | 0 | 0.0 | 0.0 | 0.00 | 0.06 | 0.00 | 94 | 1011.8 |
| 20260507100056 | 48 | 0 | 0.0 | 0.0 | 0.00 | 0.06 | 0.00 | 94 | 1011.7 |
| 20260507094553 | 49 | 0 | 0.0 | 2.0 | 0.00 | 0.25 | 0.00 | 93 | 1011.5 |
| 20260507093054 | 49 | 0 | 0.0 | 0.0 | 0.00 | 0.25 | 0.00 | 94 | 1011.6 |
| 20260507091552 | 49 | 0 | 0.0 | 0.0 | 0.00 | 0.25 | 0.00 | 93 | 1011.6 |
| 20260507090058 | 49 | 0 | 0.0 | 0.0 | 0.00 | 0.25 | 0.00 | 91 | 1011.5 |
| 20260507084552 | 49 | 0 | 0.0 | 0.0 | 0.00 | 0.34 | 0.00 | 93 | 1011.5 |
| 20260507083054 | 49 | 0 | 0.0 | 0.0 | 0.00 | 0.34 | 0.00 | 93 | 1011.6 |
| 20260507081557 | 49 | 0 | 0.0 | 0.0 | 0.00 | 0.34 | 0.00 | 94 | 1011.5 |
| 20260507074605 | 50 | 0 | 0.0 | 0.0 | 0.00 | 0.41 | 0.00 | 92 | 1011.4 |
| 20260507073055 | 50 | 0 | 0.0 | 0.0 | 0.00 | 0.41 | 0.00 | 91 | 1011.3 |
| 20260507071555 | 50 | 0 | 0.0 | 0.0 | 0.00 | 0.41 | 0.00 | 92 | 1011.2 |
| 20260507070111 | 50 | 0 | 0.0 | 0.0 | 0.00 | 0.41 | 0.00 | 90 | 1011.6 |
| 20260507064605 | 50 | 0 | 0.0 | 0.0 | 0.00 | 0.51 | 0.00 | 89 | 1011.5 |
| 20260507063059 | 51 | 0 | 0.0 | 0.0 | 0.00 | 0.51 | 0.00 | 88 | 1011.6 |
| 20260507061554 | 51 | 0 | 0.0 | 0.0 | 0.00 | 0.51 | 0.00 | 89 | 1011.5 |
| 20260507060056 | 51 | 0 | 0.0 | 1.0 | 0.00 | 0.51 | 0.00 | 88 | 1011.6 |
| 20260507054556 | 51 | 0 | 0.0 | 2.0 | 0.00 | 0.52 | 0.00 | 88 | 1011.6 |
| 20260507053058 | 51 | 0 | 0.0 | 1.0 | 0.00 | 0.52 | 0.00 | 88 | 1011.6 |
| 20260507051603 | 51 | 0 | 0.0 | 2.0 | 0.00 | 0.52 | 0.00 | 91 | 1012.0 |
| 20260507050054 | 51 | 69 | 0.0 | 5.0 | 0.00 | 0.52 | 0.00 | 93 | 1011.8 |
| 20260507044556 | 51 | 0 | 0.0 | 1.0 | 0.00 | 0.57 | 0.00 | 95 | 1011.9 |
| 20260507043059 | 52 | 0 | 0.0 | 1.0 | 0.00 | 0.57 | 0.00 | 96 | 1011.7 |
| 20260507041555 | 52 | 0 | 0.0 | 2.0 | 0.00 | 0.57 | 0.00 | 97 | 1012.0 |
| 20260507034559 | 53 | 0 | 0.0 | 2.0 | 0.00 | 0.57 | 0.57 | 98 | 1012.3 |
| 20260507033056 | 53 | 0 | 0.0 | 1.0 | 0.00 | 0.57 | 0.57 | 98 | 1011.9 |
| 20260507031559 | 53 | 0 | 0.0 | 0.0 | 0.00 | 0.57 | 0.57 | 97 | 1011.7 |
| 20260507030055 | 53 | 0 | 0.0 | 0.0 | 0.00 | 0.57 | 0.57 | 97 | 1011.4 |
| 20260507024557 | 53 | 0 | 0.0 | 0.0 | 0.00 | 0.57 | 0.57 | 97 | 1011.2 |
| 20260507023055 | 53 | 308 | 0.0 | 1.0 | 0.00 | 0.57 | 0.57 | 96 | 1011.2 |
| 20260507021554 | 54 | 0 | 0.0 | 0.0 | 0.00 | 0.57 | 0.57 | 96 | 1011.3 |
| 20260507020058 | 54 | 0 | 0.0 | 1.0 | 0.00 | 0.57 | 0.57 | 96 | 1011.2 |
| 20260507014559 | 54 | 0 | 0.0 | 3.0 | 0.00 | 0.57 | 0.57 | 95 | 1011.3 |
| 20260507013117 | 54 | 192 | 0.0 | 2.0 | 0.00 | 0.57 | 0.57 | 94 | 1011.2 |
| 20260507011553 | 54 | 321 | 1.0 | 4.0 | 0.00 | 0.57 | 0.57 | 95 | 1011.9 |
| 20260507010105 | 54 | 220 | 1.0 | 4.0 | 0.00 | 0.57 | 0.57 | 95 | 1011.3 |
| 20260507004553 | 54 | 360 | 0.0 | 3.0 | 0.00 | 0.57 | 0.57 | 95 | 1011.0 |
| 20260507003059 | 54 | 0 | 1.0 | 4.0 | 0.00 | 0.57 | 0.57 | 94 | 1011.1 |
| 20260507001558 | 54 | 0 | 0.0 | 0.0 | 0.00 | 0.57 | 0.57 | 94 | 1010.4 |
| 20260507000057 | 55 | 0 | 0.0 | 0.0 | 0.00 | 0.57 | 0.57 | 94 | 1010.3 |
| 20260506234558 | 55 | 327 | 2.0 | 4.0 | 0.00 | 0.57 | 0.57 | 93 | 1011.0 |
| 20260506233105 | 55 | 0 | 0.0 | 0.0 | 0.00 | 0.57 | 0.57 | 94 | 1009.5 |
| 20260506231605 | 56 | 0 | 0.0 | 2.0 | 0.00 | 0.57 | 0.57 | 92 | 1010.3 |
| 20260506224555 | 56 | 0 | 0.0 | 2.0 | 0.00 | 0.57 | 0.57 | 88 | 1009.9 |
| 20260506223100 | 56 | 0 | 0.0 | 1.0 | 0.00 | 0.57 | 0.57 | 89 | 1010.0 |
| 20260506221600 | 56 | 355 | 0.0 | 2.0 | 0.00 | 0.57 | 0.57 | 88 | 1010.1 |
| 20260506220059 | 56 | 0 | 0.0 | 3.0 | 0.00 | 0.57 | 0.57 | 88 | 1010.7 |
| 20260506214555 | 56 | 0 | 1.0 | 3.0 | 0.00 | 0.57 | 0.57 | 87 | 1010.3 |
| 20260506213103 | 57 | 0 | 0.0 | 2.0 | 0.00 | 0.57 | 0.57 | 86 | 1010.1 |
| 20260506211611 | 57 | 269 | 0.0 | 4.0 | 0.00 | 0.57 | 0.57 | 87 | 1009.8 |
| 20260506210059 | 57 | 0 | 0.0 | 3.0 | 0.00 | 0.57 | 0.57 | 86 | 1009.7 |
| 20260506204600 | 57 | 0 | 0.0 | 5.0 | 0.00 | 0.57 | 0.57 | 90 | 1009.9 |
| 20260506203056 | 57 | 0 | 0.0 | 2.0 | 0.00 | 0.57 | 0.57 | 88 | 1010.2 |
| 20260506201604 | 57 | 101 | 0.0 | 6.0 | 0.00 | 0.57 | 0.57 | 89 | 1010.1 |
| 20260506200055 | 56 | 278 | 1.0 | 5.0 | 0.00 | 0.57 | 0.57 | 88 | 1010.2 |
| 20260506194556 | 56 | 0 | 0.0 | 2.0 | 0.00 | 0.57 | 0.57 | 89 | 1010.3 |
| 20260506193052 | 56 | 58 | 0.0 | 3.0 | 0.00 | 0.57 | 0.57 | 90 | 1010.2 |